Regional Weather Roundup
Issued by NWS Little Rock, AR

Home | Current Version | Previous Version | Graphics & Text | Print | Product List | Glossary On
Versions: 1 2 3 4 5 6 7 8 9 10 11 12 13 14 15 16 17 18 19 20 21 22 23 24 25 26 27 28 29 30 31 32 33 34 35 36 37 38 39 40 41 42 43 44 45 46 47 48 49 50
000
ASUS44 KLZK 240005
RWRLZK

WEATHER ROUNDUP FOR ARKANSAS
NATIONAL WEATHER SERVICE LITTLE ROCK AR
700 PM CDT MON MAY 23 2016

NOTE: "FAIR" INDICATES FEW OR NO CLOUDS BELOW 12,000 FEET WITH NO
SIGNIFICANT WEATHER AND/OR OBSTRUCTIONS TO VISIBILITY.

ARZ001-003-010-029-240100-
NORTHWEST ARKANSAS

CITY           SKY/WX    TMP DP  RH WIND       PRES   REMARKS
FAYETTEVILLE   CLOUDY    66  64  93 NE3       29.92F
6HR MIN TEMP:  65; 6HR MAX TEMP:  73; 6HR PCP:  0.01;

FORT SMITH     CLOUDY    74  62  66 SE7       29.89F
6HR MIN TEMP:  73; 6HR MAX TEMP:  78; 6HR PCP:  0.02;

HARRISON       PTSUNNY   69  60  73 S9        29.93F
6HR MIN TEMP:  69; 6HR MAX TEMP:  78; 6HR PCP: TRACE;

BENTONVILLE    CLOUDY    64  59  82 SE6       29.91F
6HR MIN TEMP:  63; 6HR MAX TEMP:  75; 6HR PCP:  0.44;

ROGERS           N/A     64  62  93 E9        29.92F
6HR MIN TEMP:  62; 6HR MAX TEMP:  77; 6HR PCP:  0.46;

SILOAM SPGS    CLOUDY    64  55  72 E5        29.90F
6HR MIN TEMP:  63; 6HR MAX TEMP:  72; 6HR PCP:  0.01;

HIGHFILL       CLOUDY    65  64  97 E5        29.91F
6HR MIN TEMP:  63; 6HR MAX TEMP:  76; 6HR PCP:  0.29;

$$

ARZ004-005-016-240100-
NORTH CENTRAL ARKANSAS

CITY           SKY/WX    TMP DP  RH WIND       PRES   REMARKS
BATESVILLE     PTSUNNY   79  55  44 CALM      29.95R
6HR MIN TEMP:  79; 6HR MAX TEMP:  82;

FLIPPIN        CLOUDY   N/A N/A N/A SE3       29.90F
                                      6HR PCP:  0.01;

MTN HOME       CLOUDY    68  63  84 SE5       29.93F
6HR MIN TEMP:  68; 6HR MAX TEMP:  80; 6HR PCP:  0.02;

$$

ARZ040-041-240100-
WEST CENTRAL ARKANSAS

CITY           SKY/WX    TMP DP  RH WIND       PRES   REMARKS
MENA           CLOUDY    75  68  78 CALM      29.95R
MOUNT IDA      MOSUNNY   76  65  68 CALM      29.92S
6HR MIN TEMP:  72; 6HR MAX TEMP:  81; 6HR PCP: TRACE;

$$

ARZ009-017-025-026-028-240100-
NORTHEAST ARKANSAS

CITY           SKY/WX    TMP DP  RH WIND       PRES   REMARKS
CORNING          N/A     81  52  36 S5        29.93R
JONESBORO      MOSUNNY   81  49  32 SW7       29.92R
6HR MIN TEMP:  81; 6HR MAX TEMP:  85;

NEWPORT        CLOUDY    82  51  34 SW8       29.95R
6HR MIN TEMP:  82; 6HR MAX TEMP:  86;

WALNUT RIDGE   PTSUNNY   81  48  32 S8        29.93R
6HR MIN TEMP:  81; 6HR MAX TEMP:  84;

BLYTHEVILLE    SUNNY     81  50  33 S6        29.93F
6HR MIN TEMP:  81; 6HR MAX TEMP:  86;

$$

ARZ022-023-033-042-044-240100-
CENTRAL ARKANSAS

CITY           SKY/WX    TMP DP  RH WIND       PRES   REMARKS
LITTLE ROCK    PTSUNNY   80  60  50 SW7       29.94R
6HR MIN TEMP:  80; 6HR MAX TEMP:  83; 6HR PCP: TRACE;

N LITTLE ROCK    N/A     77  64  65 CALM      29.93R
6HR MIN TEMP:  77; 6HR MAX TEMP:  81;

JACKSONVILLE   CLOUDY    77  61  57 SW5       29.93R
6HR MIN TEMP:  78; 6HR MAX TEMP:  85; 6HR PCP: TRACE;

SEARCY         CLOUDY    75  64  68 SE3       29.95R
6HR MIN TEMP:  75; 6HR MAX TEMP:  85;

HOT SPRINGS    MOSUNNY   80  61  52 SE3       29.94S
6HR MIN TEMP:  77; 6HR MAX TEMP:  82;

RUSSELLVILLE   MOSUNNY   76  63  64 CALM      29.93F
6HR MIN TEMP:  76; 6HR MAX TEMP:  79;

CLINTON        FAIR      72  66  83 CALM      29.95F
$$

ARZ036-240100-
EAST ARKANSAS

CITY           SKY/WX    TMP DP  RH WIND       PRES   REMARKS
WEST MEMPHIS   MOSUNNY   80  49  33 S8        29.92R
6HR MIN TEMP:  80; 6HR MAX TEMP:  85;

$$

ARZ050-053-066-070-073-240100-
SOUTHWEST ARKANSAS

CITY           SKY/WX    TMP DP  RH WIND       PRES   REMARKS
ARKADELPHIA    FAIR      83  71  66 E3        29.92S HX  87
6HR MIN TEMP:  79; 6HR MAX TEMP:  85;

CAMDEN         MOSUNNY   81  59  47 CALM      29.91S
TEXARKANA      SUNNY     81  65  58 S7        29.90R
6HR MIN TEMP:  75; 6HR MAX TEMP:  84;

EL DORADO      MOSUNNY   80  64  58 E6        29.91F
6HR MIN TEMP:  78; 6HR MAX TEMP:  84;

DE QUEEN       CLOUDY    80  69  69 E3        29.88S
6HR MIN TEMP:  71; 6HR MAX TEMP:  81;

$$

ARZ056-057-069-240100-
SOUTHEAST ARKANSAS

CITY           SKY/WX    TMP DP  RH WIND       PRES   REMARKS
PINE BLUFF     CLOUDY    79  58  48 SW6       29.93R
6HR MIN TEMP:  78; 6HR MAX TEMP:  84;

STUTTGART      CLOUDY    82  54  36 SW9       29.94R
6HR MIN TEMP:  82; 6HR MAX TEMP:  86;

MONTICELLO     PTSUNNY   83  59  44 SW5       29.93R
6HR MIN TEMP:  82; 6HR MAX TEMP:  85;


$$





USA.gov is the U.S. government's official web portal to all federal, state and local government web resources and services.